Regional Weather Roundup
Issued by NWS

Home | Current Version | Previous Version | Text Only | Print | Product List | Glossary Off
Versions: 1 2 3 4 5 6 7 8 9 10 11 12 13 14 15 16 17 18 19 20 21 22 23 24 25 26 27 28 29 30 31 32 33 34 35 36 37 38 39 40 41 42 43 44 45 46 47 48 49 50

000
ASUS45 KBOI 190110
RWRID
WEATHER ROUNDUP FOR IDAHO
NATIONAL WEATHER SERVICE BOISE ID
700 PM MDT THU SEP 18 2014

NOTE: "FAIR" INDICATES FEW OR NO CLOUDS BELOW 12000 FEET
WITH NO SIGNIFICANT WEATHER AND/OR OBSTRUCTIONS TO VISIBILITY

IDZ012-014-190200-
SOUTHWEST IDAHO


CITY           SKY/WX    TMP DP  RH WIND       PRES   REMARKS
BOISE          PTCLDY    81  42  25 NW10      29.77R
CALDWELL       PTCLDY    81  45  28 SW3       29.77F
MOUNTAIN HOME  PTCLDY    84  38  19 W3        29.75F
$$

IDZ016-017-190200-
SOUTHCENTRAL IDAHO


CITY           SKY/WX    TMP DP  RH WIND       PRES   REMARKS
BURLEY         CLOUDY    69  52  54 S6        29.84S HAZE
JEROME         PTCLDY    75  46  35 W5        29.84R
TWIN FALLS     MOCLDY    79  42  26 NW5       29.85R HAZE
$$

IDZ019>023-190200-
SOUTHEAST IDAHO


CITY           SKY/WX    TMP DP  RH WIND       PRES   REMARKS
IDAHO FALLS    LGT RAIN  69  51  52 S18G32    29.89R
POCATELLO      LGT RAIN  63  57  81 VRB6      29.88F
REXBURG        TSTM      67  54  63 SW17G38   29.90R
$$

IDZ006-010-011-018-031-032-190200-
CENTRAL IDAHO MOUNTAINS


CITY           SKY/WX    TMP DP  RH WIND       PRES   REMARKS
MCCALL         MOCLDY    72  37  28 S9        29.87R
HAILEY         PTCLDY    73  43  33 W6        29.91R SMOKE
STANLEY          N/A     66  36  32 CALM      30.00S
SALMON         MOCLDY    72  48  43 N5        29.77F
CHALLIS        PTCLDY    73  33  23 S5        29.88S
$$

IDZ002-004-006-007-026-190200-
NORTHERN IDAHO


CITY           SKY/WX    TMP DP  RH WIND       PRES   REMARKS
LEWISTON       MOCLDY    79  45  29 NW15G25   29.74R
LOWELL           N/A     69  55  60 MISG      29.74R
COEUR D`ALENE  CLOUDY    75  45  33 W10       29.74R
MULLAN PASS    MOCLDY    57  39  51 VRB6      29.92S
$$



USA.gov is the U.S. government's official web portal to all federal, state and local government web resources and services.